Location: Jackson
(42.2460°N, 84.4010°W)
Time: 11:47:05
(UTC-04:00)

Injun/Solrad 3 - Pass Details

Date: 13 February 2026
Orbit: 871 x 985 km, 66.8° (Epoch: 16 March)

Event Time Altitude Azimuth Distance (km) Brightness Sun altitude
Rises 19:17:08 0° 337° (NNW) 3,547 11.2 -13.4°
Reaches altitude 10° 19:21:20 10° 5° (N) 2,630 10.2 -14.2°
Maximum altitude 19:24:00 13° 32° (NNE) 2,440 9.8 -14.7°
Enters shadow 19:25:20 12° 45° (NE) 2,500 9.7 -14.9°
